This is the latest recevied weather packets stored in our database for station/object KA9CBS. If no packets are shown the sender has not sent any weather packets the latest 10 day(s).
| Time | Temp. | Humidity | Pressure | Rain* | Wind** | Luminosity | Snow |
|---|---|---|---|---|---|---|---|
| 1778112857 | 13.89° C | 57% | 1016.7 hPa | 0 mm | - | 22 W/m² | - |
| 1778112554 | 14.44° C | 57% | 1016.5 hPa | 0 mm | - | 25 W/m² | - |
| 1778112249 | 14.44° C | 57% | 1016.5 hPa | 0 mm | - | 26 W/m² | - |
| 1778111945 | 14.44° C | 57% | 1016.5 hPa | 0 mm | - | 28 W/m² | - |
| 1778111643 | 14.44° C | 56% | 1016.5 hPa | 0 mm | - | 30 W/m² | - |
| 1778111338 | 14.44° C | 55% | 1016.4 hPa | 0 mm | - | 35 W/m² | - |
| 1778111036 | 14.44° C | 56% | 1016.2 hPa | 0 mm | - | 35 W/m² | - |
| 1778110734 | 15° C | 60% | 1016.3 hPa | 0 mm | - | 43 W/m² | - |
| 1778110429 | 15° C | 56% | 1016.3 hPa | 0 mm | - | 45 W/m² | - |
| 1778110127 | 15° C | 56% | 1016.4 hPa | 0 mm | - | 49 W/m² | - |
| 1778109823 | 14.44° C | 58% | 1016.2 hPa | 0 mm | - | 60 W/m² | - |
| 1778109519 | 14.44° C | 57% | 1016.3 hPa | 0 mm | - | 52 W/m² | - |
| 1778109217 | 15° C | 57% | 1016.6 hPa | 0 mm | - | 48 W/m² | - |
| 1778108914 | 15° C | 56% | 1016.3 hPa | 0 mm | - | 59 W/m² | - |
| 1778108611 | 15° C | 54% | 1016.6 hPa | 0 mm | - | 70 W/m² | - |
| 1778108306 | 15° C | 58% | 1016.5 hPa | 0 mm | - | 119 W/m² | - |
| 1778108004 | 14.44° C | 60% | 1016.6 hPa | 0 mm | - | 58 W/m² | - |
| 1778107695 | 15° C | 58% | 1016.7 hPa | 0 mm | - | 55 W/m² | - |
| 1778107392 | 15° C | 59% | 1016.6 hPa | 0 mm | - | 78 W/m² | - |
| 1778107089 | 15° C | 59% | 1016.6 hPa | 0 mm | - | 74 W/m² | - |
| 1778106783 | 15° C | 58% | 1016.7 hPa | 0 mm | - | 114 W/m² | - |
| 1778106481 | 14.44° C | 60% | 1016.7 hPa | 0 mm | - | 116 W/m² | - |
| 1778106176 | 14.44° C | 61% | 1016.7 hPa | 0 mm | - | 101 W/m² | - |
| 1778105874 | 15° C | 61% | 1016.9 hPa | 0 mm | - | 109 W/m² | - |
| 1778105572 | 15.56° C | 58% | 1016.8 hPa | 0 mm | - | 139 W/m² | - |
* Rain latest hour (hover to see other rain measurements)
** Current wind speed in m/s (hover to see current wind gust speed)